KI5IZM-13 Weather Reports


Display with metric or nautical units.
time (UTC)temp
F
wind
direction
speed
MPH
gust
MPH
rain 1hr
in
rain 24hr
in
rain mn
in
humidity
%
barometer
mb
20260507114508 52 164 0.0 1.0 0.00 0.00 0.00 88 1019.3
20260507113008 52 169 0.0 0.0 0.00 0.00 0.00 87 1019.0
20260507111518 52 154 0.0 1.0 0.00 0.00 0.00 86 1018.9
20260507110020 52 148 0.0 2.0 0.00 0.00 0.00 87 1018.4
20260507104523 52 124 0.0 2.0 0.00 0.00 0.00 87 1017.8
20260507103007 52 167 0.0 1.0 0.00 0.00 0.00 87 1017.6
20260507101518 52 143 0.0 2.0 0.00 0.00 0.00 87 1017.4
20260507100031 52 164 0.0 2.0 0.00 0.00 0.00 88 1017.3
20260507094519 52 146 0.0 1.0 0.00 0.00 0.00 87 1017.3
20260507093028 53 123 0.0 2.0 0.00 0.00 0.00 87 1017.2
20260507091510 53 149 0.0 2.0 0.00 0.00 0.00 86 1017.1
20260507090014 53 117 0.0 2.0 0.00 0.00 0.00 86 1016.7
20260507084542 53 76 0.0 2.0 0.00 0.00 0.00 86 1016.6
20260507083025 53 86 0.0 2.0 0.00 0.00 0.00 86 1016.7
20260507081524 53 101 0.0 4.0 0.00 0.00 0.00 86 1016.4
20260507080025 53 90 0.0 2.0 0.00 0.00 0.00 87 1016.6
20260507074517 53 117 1.0 6.0 0.00 0.00 0.00 86 1016.5
20260507073004 53 48 0.0 5.0 0.00 0.00 0.00 86 1016.8
20260507071514 54 57 0.0 9.0 0.00 0.00 0.00 86 1016.9
20260507070017 54 121 1.0 7.0 0.00 0.00 0.00 87 1017.4
20260507064503 54 73 0.0 2.0 0.00 0.00 0.00 87 1017.6
20260507063003 54 140 1.0 5.0 0.00 0.00 0.00 87 1017.6
20260507061504 54 48 1.0 3.0 0.00 0.00 0.00 86 1017.8
20260507060006 54 173 1.0 5.0 0.00 0.00 0.00 86 1017.5
20260507054510 54 110 1.0 12.0 0.00 0.00 0.00 86 1017.6
20260507053003 55 299 0.0 6.0 0.00 0.00 0.00 86 1017.6
20260507051504 55 149 0.0 4.0 0.00 0.00 0.00 86 1017.7
20260507050020 55 132 0.0 3.0 0.00 0.00 0.00 86 1017.7
20260507044513 55 100 0.0 4.0 0.00 0.00 0.00 86 1017.7
20260507043010 55 30 2.0 10.0 0.00 0.00 0.00 86 1017.4
20260507041516 56 155 0.0 3.0 0.00 0.00 0.00 88 1017.4
20260507040005 56 352 0.0 11.0 0.00 0.00 0.00 89 1017.4
20260507034506 56 118 0.0 9.0 0.00 0.00 0.00 88 1017.0
20260507033008 57 246 1.0 4.0 0.00 0.00 0.00 87 1017.0
20260507031514 57 300 0.0 6.0 0.00 0.00 0.00 87 1016.7
20260507030018 58 109 0.0 6.0 0.00 0.00 0.00 88 1016.4
20260507024504 58 291 0.0 3.0 0.00 0.00 0.00 89 1016.0
20260507023004 58 77 2.0 10.0 0.00 0.00 0.00 89 1015.7
20260507021519 58 13 0.0 6.0 0.00 0.00 0.00 90 1015.8
20260507020022 59 54 0.0 2.0 0.00 0.00 0.00 90 1015.3
20260507014523 59 107 0.0 6.0 0.00 0.00 0.00 90 1014.4
20260507013007 60 90 2.0 5.0 0.00 0.00 0.00 90 1014.0
20260507011530 60 113 0.0 4.0 0.00 0.00 0.00 91 1014.3
20260507010028 60 5 0.0 4.0 0.00 0.00 0.00 91 1013.9
20260507004520 60 69 1.0 5.0 0.00 0.00 0.00 91 1013.9
20260507003022 60 71 0.0 5.0 0.00 0.00 0.00 91 1013.7
20260507001507 60 350 0.0 3.0 0.00 0.00 0.00 90 1013.6
20260507000010 60 82 1.0 6.0 0.00 0.00 0.00 90 1013.7
20260506234515 61 127 0.0 2.0 0.00 0.00 0.00 90 1013.5
20260506233028 61 19 0.0 4.0 0.00 0.00 0.00 89 1013.7
20260506231528 61 85 0.0 2.0 0.00 0.00 0.00 89 1013.6
20260506230029 61 318 0.0 2.0 0.00 0.00 0.00 88 1013.2
20260506224514 61 333 0.0 2.0 0.00 0.00 0.00 89 1013.1
20260506223019 61 5 0.0 4.0 0.00 0.00 0.00 88 1013.0
20260506221530 61 142 0.0 2.0 0.00 0.00 0.00 88 1013.1
20260506220031 62 350 0.0 3.0 0.00 0.00 0.00 87 1012.8
20260506214531 62 71 0.0 3.0 0.00 0.00 0.00 87 1012.8
20260506213022 62 315 0.0 3.0 0.00 0.00 0.00 85 1013.1
20260506211523 63 128 0.0 3.0 0.00 0.00 0.00 85 1013.2
20260506210032 63 229 0.0 1.0 0.00 0.00 0.00 84 1012.9
20260506204541 63 104 0.0 3.0 0.00 0.00 0.00 84 1012.3
20260506203030 63 22 2.0 6.0 0.00 0.00 0.00 84 1012.2
20260506201519 62 102 1.0 3.0 0.00 0.00 0.00 85 1012.7
20260506200022 62 33 0.0 3.0 0.00 0.00 0.00 86 1012.9
20260506194526 62 131 0.0 3.0 0.00 0.00 0.00 85 1013.2
20260506193027 62 43 0.0 7.0 0.00 0.00 0.00 85 1013.4
20260506191527 62 65 2.0 6.0 0.00 0.00 0.00 85 1013.1
20260506190020 62 273 0.0 4.0 0.00 0.00 0.00 84 1012.9
20260506184524 62 133 0.0 3.0 0.00 0.00 0.00 83 1012.4
20260506183026 62 107 1.0 7.0 0.00 0.00 0.00 84 1012.1
20260506181528 62 55 0.0 4.0 0.00 0.00 0.00 84 1012.4
20260506180030 62 37 0.0 4.0 0.00 0.00 0.00 84 1013.5
20260506174520 61 351 0.0 8.0 0.00 0.00 0.00 85 1013.3
20260506173026 60 146 1.0 5.0 0.00 0.00 0.00 86 1013.4
20260506171536 59 25 0.0 6.0 0.00 0.00 0.00 87 1014.0
20260506170025 59 352 0.0 7.0 0.00 0.00 0.00 87 1014.6
20260506164526 59 36 1.0 4.0 0.00 0.00 0.00 87 1015.4
20260506163006 59 240 0.0 3.0 0.00 0.00 0.00 87 1015.7
20260506161509 59 269 0.0 6.0 0.00 0.00 0.00 86 1015.1
20260506160012 60 46 0.0 2.0 0.00 0.00 0.00 86 1014.6
20260506154513 60 38 1.0 6.0 0.00 0.00 0.00 86 1014.0
20260506153020 60 11 0.0 3.0 0.00 0.00 0.00 85 1013.5
20260506151505 60 256 0.0 2.0 0.00 0.00 0.00 86 1013.4
20260506150017 60 146 0.0 2.0 0.00 0.00 0.00 86 1013.5
20260506144513 60 49 0.0 8.0 0.00 0.00 0.00 86 1013.3
20260506143036 60 59 0.0 4.0 0.00 0.00 0.00 86 1012.9
20260506141522 61 84 0.0 2.0 0.00 0.00 0.00 87 1012.7
20260506140010 61 61 0.0 6.0 0.00 0.00 0.00 87 1012.6
20260506134508 62 62 0.0 3.0 0.00 0.00 0.00 87 1012.2
20260506133013 63 327 0.0 3.0 0.00 0.00 0.00 86 1012.4
20260506131526 64 209 0.0 5.0 0.00 0.00 0.00 87 1012.1
20260506130024 65 265 0.0 2.0 0.00 0.00 0.00 86 1011.9
20260506124508 66 225 0.0 1.0 0.00 0.00 0.00 86 1011.6
20260506123012 67 85 0.0 2.0 0.00 0.00 0.00 84 1011.2
20260506121517 69 41 0.0 2.0 0.00 0.00 0.00 83 1011.1
20260506120024 70 37 0.0 2.0 0.00 0.00 0.00 84 1010.9